When you browse on this site, cookies collect data to enhance your experience and personalize the content and advertising you see.
Visit our Privacy Policy to learn more. By continuing to use the site, you agree to this use of cookies and data.
  • In Hungary
  • List of Countries
  • For 7 days
  • Water Temperature
  • Satellite Maps
  • Weather Map
  • News
  • Weather Widgets
  • user-avatar
    Login

    Hourly Weather Casas Adobes

    Today, 26 March, Tuesday

    Time Temperature Precipitation Wind Pressure Humidity
    00:00 +21°C° 0 mm 1 mps 698 mmHg 26%
    01:00 +18°C° 0 mm 0 mps 698 mmHg 27%
    02:00 +18°C° 0 mm 0 mps 698 mmHg 28%
    03:00 +17°C° 0 mm 0 mps 697 mmHg 28%
    04:00 +17°C° 0 mm 0 mps 697 mmHg 28%
    05:00 +17°C° 0 mm 0 mps 697 mmHg 28%
    06:00 +20°C° 0 mm 1 mps 698 mmHg 25%
    07:00 +22°C° 0 mm 1 mps 698 mmHg 22%
    08:00 +23°C° 0 mm 1 mps 699 mmHg 19%
    09:00 +25°C° 0 mm 1 mps 699 mmHg 17%
    10:00 +27°C° 0 mm 2 mps 699 mmHg 15%
    11:00 +28°C° 0 mm 2 mps 699 mmHg 13%
    12:00 +29°C° 0 mm 2 mps 699 mmHg 12%
    13:00 +30°C° 0 mm 2 mps 699 mmHg 11%
    14:00 +31°C° 0 mm 2 mps 699 mmHg 11%
    15:00 +31°C° 0 mm 2 mps 698 mmHg 11%
    16:00 +31°C° 0 mm 3 mps 698 mmHg 11%
    17:00 +32°C° 0 mm 4 mps 698 mmHg 11%
    18:00 +30°C° 0 mm 3 mps 698 mmHg 13%
    19:00 +28°C° 0 mm 3 mps 698 mmHg 15%
    20:00 +27°C° 0 mm 2 mps 698 mmHg 16%
    21:00 +26°C° 0 mm 2 mps 698 mmHg 18%
    22:00 +25°C° 0 mm 2 mps 698 mmHg 19%
    23:00 +24°C° 0 mm 1 mps 698 mmHg 20%

    Tomorrow, 27 March, Wednesday

    Time Temperature Precipitation Wind Pressure Humidity
    00:00 +23°C° 0 mm 1 mps 698 mmHg 21%
    01:00 +23°C° 0 mm 1 mps 698 mmHg 22%
    02:00 +20°C° 0 mm 0 mps 698 mmHg 23%
    03:00 +19°C° 0 mm 0 mps 697 mmHg 24%
    04:00 +19°C° 0 mm 0 mps 697 mmHg 25%
    05:00 +18°C° 0 mm 0 mps 697 mmHg 26%
    06:00 +21°C° 0 mm 1 mps 698 mmHg 24%
    07:00 +23°C° 0 mm 1 mps 698 mmHg 22%
    08:00 +24°C° 0 mm 1 mps 699 mmHg 20%
    09:00 +25°C° 0 mm 2 mps 699 mmHg 18%
    10:00 +27°C° 0 mm 3 mps 700 mmHg 16%
    11:00 +28°C° 0 mm 3 mps 700 mmHg 14%
    12:00 +28°C° 0 mm 4 mps 700 mmHg 13%
    13:00 +29°C° 0 mm 4 mps 700 mmHg 11%
    14:00 +30°C° 0 mm 4 mps 699 mmHg 10%
    15:00 +30°C° 0 mm 4 mps 699 mmHg 10%
    16:00 +30°C° 0 mm 4 mps 699 mmHg 10%
    17:00 +30°C° 0 mm 4 mps 699 mmHg 10%
    18:00 +28°C° 0 mm 3 mps 699 mmHg 12%
    19:00 +27°C° 0 mm 3 mps 699 mmHg 14%
    20:00 +25°C° 0 mm 2 mps 699 mmHg 16%
    21:00 +24°C° 0 mm 2 mps 699 mmHg 18%
    22:00 +24°C° 0 mm 2 mps 699 mmHg 19%
    23:00 +23°C° 0 mm 2 mps 700 mmHg 20%

    Day after tomorrow, 28 March, Thursday

    Time Temperature Precipitation Wind Pressure Humidity
    00:00 +22°C° 0 mm 1 mps 700 mmHg 22%
    01:00 +21°C° 0 mm 1 mps 699 mmHg 24%
    02:00 +20°C° 0 mm 1 mps 699 mmHg 26%
    03:00 +20°C° 0 mm 1 mps 699 mmHg 25%
    04:00 +19°C° 0 mm 1 mps 699 mmHg 25%
    05:00 +18°C° 0 mm 1 mps 699 mmHg 25%
    06:00 +19°C° 0 mm 1 mps 699 mmHg 23%
    07:00 +20°C° 0 mm 1 mps 700 mmHg 21%
    08:00 +19°C° 0 mm 0 mps 701 mmHg 19%
    09:00 +22°C° 0 mm 1 mps 701 mmHg 17%
    10:00 +24°C° 0 mm 1 mps 701 mmHg 15%
    11:00 +25°C° 0 mm 1 mps 701 mmHg 13%
    12:00 +26°C° 0 mm 2 mps 701 mmHg 12%
    13:00 +27°C° 0 mm 3 mps 701 mmHg 12%
    14:00 +27°C° 0 mm 4 mps 700 mmHg 12%
    15:00 +28°C° 0 mm 4 mps 700 mmHg 12%
    16:00 +28°C° 0 mm 4 mps 700 mmHg 12%
    17:00 +28°C° 0 mm 5 mps 699 mmHg 13%
    18:00 +26°C° 0 mm 4 mps 700 mmHg 16%
    19:00 +25°C° 0 mm 4 mps 700 mmHg 18%
    20:00 +22°C° 0 mm 3 mps 700 mmHg 21%
    21:00 +22°C° 0 mm 3 mps 700 mmHg 23%
    22:00 +21°C° 0 mm 2 mps 700 mmHg 25%
    23:00 +20°C° 0 mm 2 mps 700 mmHg 27%

    29 March, Friday

    Time Temperature Precipitation Wind Pressure Humidity
    00:00 +20°C° 0 mm 1 mps 700 mmHg 28%
    01:00 +19°C° 0 mm 1 mps 699 mmHg 29%
    02:00 +19°C° 0 mm 1 mps 699 mmHg 30%
    03:00 +18°C° 0 mm 1 mps 699 mmHg 31%
    04:00 +16°C° 0 mm 1 mps 698 mmHg 32%
    05:00 +15°C° 0 mm 0 mps 698 mmHg 33%
    06:00 +16°C° 0 mm 0 mps 699 mmHg 30%
    07:00 +17°C° 0 mm 0 mps 699 mmHg 27%
    08:00 +18°C° 0 mm 0 mps 700 mmHg 24%
    09:00 +21°C° 0 mm 1 mps 700 mmHg 20%
    10:00 +21°C° 0 mm 2 mps 700 mmHg 16%
    11:00 +23°C° 0 mm 2 mps 700 mmHg 12%
    12:00 +24°C° 0 mm 3 mps 700 mmHg 12%
    13:00 +25°C° 0 mm 3 mps 699 mmHg 11%
    14:00 +26°C° 0 mm 4 mps 699 mmHg 10%
    15:00 +26°C° 0 mm 4 mps 698 mmHg 10%
    16:00 +26°C° 0 mm 4 mps 698 mmHg 10%
    17:00 +26°C° 0 mm 4 mps 698 mmHg 11%
    18:00 +25°C° 0 mm 4 mps 698 mmHg 12%
    19:00 +24°C° 0 mm 3 mps 698 mmHg 13%
    20:00 +21°C° 0 mm 3 mps 698 mmHg 14%
    21:00 +20°C° 0 mm 2 mps 698 mmHg 15%
    22:00 +20°C° 0 mm 2 mps 698 mmHg 16%
    23:00 +19°C° 0 mm 2 mps 698 mmHg 16%

    30 March, Saturday

    Time Temperature Precipitation Wind Pressure Humidity
    00:00 +19°C° 0 mm 1 mps 698 mmHg 18%
    01:00 +18°C° 0 mm 1 mps 697 mmHg 19%
    02:00 +18°C° 0 mm 1 mps 697 mmHg 21%
    03:00 +16°C° 0 mm 1 mps 697 mmHg 22%
    04:00 +15°C° 0 mm 0 mps 697 mmHg 22%
    05:00 +14°C° 0 mm 0 mps 697 mmHg 23%
    06:00 +18°C° 0 mm 1 mps 697 mmHg 20%
    07:00 +19°C° 0 mm 1 mps 698 mmHg 17%
    08:00 +21°C° 0 mm 1 mps 699 mmHg 15%
    09:00 +22°C° 0 mm 1 mps 699 mmHg 14%
    10:00 +23°C° 0 mm 1 mps 699 mmHg 12%
    11:00 +25°C° 0 mm 1 mps 699 mmHg 11%
    12:00 +26°C° 0 mm 1 mps 698 mmHg 11%
    13:00 +26°C° 0 mm 1 mps 698 mmHg 10%
    14:00 +27°C° 0 mm 1 mps 697 mmHg 9%
    15:00 +27°C° 0 mm 2 mps 697 mmHg 9%
    16:00 +28°C° 0 mm 2 mps 697 mmHg 9%
    17:00 +28°C° 0 mm 3 mps 697 mmHg 10%
    18:00 +26°C° 0 mm 3 mps 697 mmHg 11%
    19:00 +25°C° 0 mm 3 mps 697 mmHg 13%
    20:00 +24°C° 0 mm 3 mps 697 mmHg 14%
    21:00 +22°C° 0 mm 3 mps 697 mmHg 15%
    22:00 +21°C° 0 mm 2 mps 698 mmHg 16%
    23:00 +20°C° 0 mm 2 mps 698 mmHg 17%

    31 March, Sunday

    Time Temperature Precipitation Wind Pressure Humidity
    00:00 +20°C° 0 mm 2 mps 698 mmHg 19%
    01:00 +19°C° 0 mm 2 mps 698 mmHg 21%
    02:00 +19°C° 0 mm 2 mps 698 mmHg 22%
    03:00 +18°C° 0 mm 3 mps 698 mmHg 25%
    04:00 +18°C° 0 mm 4 mps 698 mmHg 28%
    05:00 +17°C° 0 mm 4 mps 698 mmHg 31%
    06:00 +17°C° 0 mm 5 mps 698 mmHg 30%
    07:00 +17°C° 0 mm 5 mps 699 mmHg 29%
    08:00 +17°C° 0 mm 6 mps 700 mmHg 29%
    09:00 +20°C° 0 mm 6 mps 700 mmHg 27%
    10:00 +21°C° 0 mm 6 mps 700 mmHg 25%
    11:00 +23°C° 0 mm 6 mps 700 mmHg 22%
    12:00 +25°C° 0 mm 5 mps 699 mmHg 21%
    13:00 +26°C° 0 mm 4 mps 699 mmHg 19%
    14:00 +27°C° 0 mm 3 mps 698 mmHg 18%
    15:00 +27°C° 0 mm 2 mps 698 mmHg 17%
    16:00 +27°C° 0 mm 1 mps 698 mmHg 16%
    17:00 +27°C° 0 mm 1 mps 697 mmHg 16%
    18:00 +26°C° 0 mm 1 mps 698 mmHg 18%
    19:00 +25°C° 0 mm 2 mps 698 mmHg 19%
    20:00 +24°C° 0 mm 2 mps 698 mmHg 21%
    21:00 +23°C° 0 mm 2 mps 698 mmHg 23%
    22:00 +21°C° 0 mm 3 mps 698 mmHg 24%
    23:00 +21°C° 0 mm 3 mps 698 mmHg 26%
    Show more